Regional Weather Roundup
Issued by NWS Albany, NY

Home | Current Version | Previous Version | Text Only | Print | Product List | Glossary On
Versions: 1 2 3 4 5 6 7 8 9 10 11 12 13 14 15 16 17 18 19 20 21 22 23 24 25 26 27
000
ASUS41 KALY 242210
RWRALY

NEW YORK STATE HOURLY WEATHER ROUNDUP
NATIONAL WEATHER SERVICE ALBANY NY
600 PM EDT SAT SEP 24 2016

NOTE: "FAIR" INDICATES FEW OR NO CLOUDS BELOW 12,000 FEET WITH NO
SIGNIFICANT WEATHER AND/OR NO OBSTRUCTIONS TO VISIBILITY.

NYZ032-033-038>043-046>054-057>066-NYZ062>081-082-084-242300-
EAST


CITY           SKY/WX    TMP DP  RH WIND       PRES   REMARKS
ALBANY         PTCLDY    62  38  40 N9        30.11R
GLENS FALLS    CLEAR     63  35  35 NW12      30.11R
POUGHKEEPSIE   CLEAR     66  40  38 NE10      30.08S
NEWBURGH       CLEAR     68  45  42 NE7       30.10R
MONTGOMERY     CLEAR     68  43  40 NE8       30.09R
WHITE PLAINS   PTCLDY    67  40  37 N7        30.08S
ISLIP          PTCLDY    68  45  43 NW5       30.08R
NEW YORK CITY  PTCLDY    70  43  37 N10       30.08R
CENTRAL PARK   CLEAR     68  42  38 VRB7      30.11R
$$

NYZ005>009-017-018-044>046-055-056-242300-
CENTRAL


CITY           SKY/WX    TMP DP  RH WIND       PRES   REMARKS
FULTON         CLEAR     61  40  45 N7        30.20R
SYRACUSE       PTCLDY    60  38  43 NW9       30.18R
ROME           CLEAR     61  41  47 N8        30.17R
ELMIRA         MOSUNNY   64  43  46 N9        30.17R
BINGHAMTON     CLEAR     58  37  45 N14       30.17R
MONTICELLO     CLEAR     61  39  44 NW9       30.14R
$$

NYZ026>034-041>043-087-242300-
NORTH


CITY           SKY/WX    TMP DP  RH WIND       PRES   REMARKS
WATERTOWN      CLEAR     61  37  41 NW6       30.18S
FORT DRUM      NOT AVBL
OGDENSBURG     FAIR      61  40  45 NW8       30.17S
MASSENA        PTCLDY    60  39  45 NW7       30.16S
SARANAC LAKE   CLEAR     53  35  50 VRB3      30.14S
PLATTSBURGH    PTCLDY    60  36  40 NW10      30.12S
$$

NYZ001>004-010>016-019>021-085-242300-
WEST


CITY           SKY/WX    TMP DP  RH WIND       PRES   REMARKS
NIAGARA FALLS  MOSUNNY   64  37  36 NE7       30.22S
BUFFALO        MOSUNNY   62  36  37 N9        30.22R
DUNKIRK        SUNNY     63  45  51 N6        30.22R
JAMESTOWN      SUNNY     59  45  58 NW9       30.21S
WELLSVILLE     MOSUNNY   60  43  53 NW6       30.22R
ROCHESTER      PTSUNNY   61  39  44 N9        30.22R
PENN YAN       SUNNY     63  41  44 NW8       30.21R
$$

             KEY
       WCI = WIND CHILL INDEX
       VSB = VISIBILITY
       HX  = HEAT INDEX
$$




USA.gov is the U.S. government's official web portal to all federal, state and local government web resources and services.